Regional Weather Roundup
Issued by NWS Midland/Odessa, TX

Skip options and go directly to product.
Home | Oldest Version | Previous Version | Current Version | All | Text Only | Save Text | Print | Product List | Glossary Off

Skip product version selection by date and time.   

453
ASUS44 KMAF 280410
RWRMAF
MIDLAND AREA WEATHER ROUNDUP
NATIONAL WEATHER SERVICE MIDLAND TX
1000 PM CST TUE JAN 27 2015

...IN SOUTHWEST TEXAS AND SOUTHEAST NEW MEXICO...

CITY           SKY/WX    TMP DP  RH WIND       PRES   REMARKS
ALPINE         CLEAR     49  43  80 S7        30.30S
ANDREWS        FAIR      56  34  44 SW8       30.17F
ARTESIA        CLEAR     48  41  76 SW12      30.17F
BIG SPRING     CLEAR     54  36  51 SE5       30.17F
CARLSBAD       CLEAR     49  38  65 SW7       30.15F
DRYDEN           N/A     59  39  47 CALM      30.15S
FORT STOCKTON  CLEAR     55  42  61 S6        30.18S
GUAD PASS      CLEAR     54  38  54 SW9       30.28S
HOBBS          CLEAR     48  36  61 CALM      30.19S
MARFA          CLEAR     43  37  81 NE3       30.28S
MIDLAND AIRPK  CLEAR     57  36  45 SW5       30.16F
MIDLAND INTL   CLEAR     53  37  54 SW3       30.16S
ODESSA         CLEAR     56  35  45 W5        30.17S
PECOS          CLEAR     51  42  70 SW7       30.16S
PRESIDIO       FAIR      56  45  65 N9        30.19S
SEMINOLE       CLEAR     51  35  54 CALM      30.18S
SNYDER         CLEAR    N/A N/A N/A S7        30.15S
WINK           CLEAR     52  34  50 SE3       30.15S
$$
...OTHER STATIONS IN TEXAS...

CITY           SKY/WX    TMP DP  RH WIND       PRES   REMARKS
ABILENE        CLEAR     54  38  54 S9        30.13S
AMARILLO       CLEAR     46  34  62 S12       30.10F
AUSTIN         CLEAR     48  43  82 CALM      30.14S
BROWNSVILLE    CLEAR     55  52  89 S6        30.18S
CORPUS CHRISTI CLEAR     54  46  74 S8        30.15S
DALLAS FTW     PTCLDY    60  40  47 S6        30.10F
DEL RIO        CLEAR     64  37  36 CALM      30.13S
EL PASO        PTCLDY    55  40  56 S3        30.21S
HOUSTON INT    PTCLDY    52  47  83 CALM      30.14S
LUBBOCK        CLEAR     50  33  52 S10       30.13F
SAN ANGELO     CLEAR     49  40  71 SW3       30.14S
SAN ANTONIO    PTCLDY    57  42  57 NW3       30.14S
WACO           CLEAR     49  42  77 SW7       30.13S
WICHITA FALLS  NOT AVBL
$$
...OTHER LOCATIONS IN NEW MEXICO...

CITY           SKY/WX    TMP DP  RH WIND       PRES   REMARKS
ALAMAGORDO     PTCLDY    46  36  66 E6        30.22F
ALBUQUERQUE    PTCLDY    44  28  53 SE3       30.25F
CANNON AFB     CLEAR     50  34  53 SW10      30.16S
CLOVIS         CLEAR     48  34  57 SW14      30.15S
HOLLOMAN AFB   PTCLDY    46  38  74 E7        30.20S
ROSWELL        CLEAR     46  37  71 W7        30.17S
RUIDOSO        CLEAR     45  32  61 W6        30.31S
SANTA FE       CLEAR     42  30  62 N7        30.26S WCI  38
TRUTH OR CONSE CLEAR     50  36  58 NW6       30.23R
TUCUMCARI      CLEAR     51  39  63 SW16      30.09F
$$

USA.gov is the U.S. government's official web portal to all federal, state and local government web resources and services.